Location: Newark
(38.1089°N, 103.8675°W)
Time: 20:37:33
(UTC+00:00)

N. Korean satellite - Visible Passes

Search period start: 09 December 2019 00:00
Search period end: 19 December 2019 00:00
Orbit: 456 x 506 km, 97.2° (Epoch: 09 December)

Date Brightness Start Highest point End Pass type
(mag) Time Alt. Az. Time Alt. Az. Time Alt. Az.
09 Dec 7.7 00:19:23 10° S 00:23:00 50° W 00:26:38 10° NNW visible
09 Dec 9.9 11:48:55 10° ENE 11:50:40 13° E 11:52:23 10° ESE visible
09 Dec 7.3 13:21:02 10° N 13:24:08 29° WNW 13:27:11 10° SW visible
10 Dec 6.4 12:55:17 10° N 12:58:48 68° WNW 13:02:13 10° SSW visible
11 Dec 9.9 01:03:36 10° SW 01:05:41 14° W 01:07:47 10° WNW visible
11 Dec 7.5 12:29:56 10° NNE 12:33:22 49° E 12:36:42 10° S visible
12 Dec 8.9 00:36:51 10° SSW 00:40:08 29° W 00:43:24 10° NW visible
12 Dec 9.1 12:05:04 10° NE 12:07:50 22° E 12:10:33 10° SSE visible
13 Dec 7.1 00:10:58 10° S 00:14:39 66° W 00:18:19 10° NNW visible
13 Dec 10.2 11:42:00 10° E 11:42:12 10° E 11:42:24 10° E visible
13 Dec 7.0 13:12:31 10° N 13:15:47 37° WNW 13:18:59 10° SW visible
14 Dec 6.4 12:46:54 10° NNE 12:50:24 90° ENE 12:53:50 10° SSW visible
15 Dec 9.7 00:54:42 10° SW 00:57:16 18° W 00:59:52 10° NW visible
15 Dec 8.1 12:21:41 10° NNE 12:24:57 37° E 12:28:08 10° SSE visible
16 Dec 8.3 00:28:17 10° SSW 00:31:44 37° W 00:35:11 10° NNW visible
16 Dec 9.5 11:57:02 10° NE 11:59:22 17° E 12:01:41 10° SE visible
16 Dec 7.7 13:29:57 10° NNW 13:32:43 22° WNW 13:35:27 10° WSW visible
17 Dec 6.7 00:02:36 10° SSE 00:06:16 86° WSW 00:09:57 10° NNW visible
17 Dec 6.6 13:04:02 10° N 13:07:25 49° WNW 13:10:43 10° SSW visible
18 Dec 10.2 01:13:31 10° WSW 01:14:27 11° W 01:15:23 10° WNW visible
18 Dec 6.8 12:38:32 10° NNE 12:41:59 68° E 12:45:23 10° S visible
